Location: Eboldshausen
(51.7766°N, 10.0050°E)
Time: 15:38:54
(UTC+00:00)

Cosmos 841 Rocket - Pass Details

Date: 15 November 2025
Orbit: 742 x 768 km, 74.0° (Epoch: 12 December)

Event Time Altitude Azimuth Distance (km) Brightness Sun altitude
Rises 17:46:58 0° 336° (NNW) 3,247 7.0 -21.1°
Reaches altitude 10° 17:49:23 10° 340° (NNW) 2,318 6.2 -21.4°
Maximum altitude 17:54:37 63° 61° (ENE) 861 3.4 -22.2°
Enters shadow 17:55:36 52° 109° (ESE) 951 3.6 -22.4°
